Location: Nemiskam
(49.4820°N, 111.2775°W)
Time: 15:59:19
(UTC+00:00)

ISS - Visible Passes

Search period start: 03 December 2022 00:00
Search period end: 13 December 2022 00:00
Orbit: 414 x 420 km, 51.6° (Epoch: 03 December)

Date Brightness Start Highest point End Pass type
(mag) Time Alt. Az. Time Alt. Az. Time Alt. Az.
03 Dec -3.3 01:23:40 10° WNW 01:26:58 58° SSW 01:27:55 39° SSE visible
04 Dec -3.7 00:35:32 10° WNW 00:38:53 80° SSW 00:42:10 10° ESE visible
04 Dec -1.3 02:12:48 10° W 02:15:08 19° SW 02:15:08 19° SW visible
05 Dec -1.9 01:24:22 10° W 01:27:18 28° SW 01:29:35 14° SSE visible
06 Dec -2.5 00:36:04 10° WNW 00:39:15 41° SSW 00:42:26 10° SE visible
07 Dec -0.7 01:25:41 10° WSW 01:27:22 13° SW 01:29:03 10° SSW visible
08 Dec -0.9 00:36:50 10° W 00:39:23 20° SW 00:41:54 10° S visible
